TimePDT,TemperatureF,Dew PointF,Humidity,Sea Level PressureIn,VisibilityMPH,Wind Direction,Wind SpeedMPH,Gust SpeedMPH,PrecipitationIn,Events,Conditions,WindDirDegrees,DateUTC
1:53 AM,45.0,34.0,65,30.00,7.0,Calm,Calm,-,N/A,,Clear,0,2012-10-09 08:53:00
2:53 AM,43.0,33.1,68,30.01,6.0,ENE,3.5,-,N/A,,Haze,60,2012-10-09 09:53:00
3:53 AM,42.1,33.1,70,30.02,9.0,Calm,Calm,-,N/A,,Clear,0,2012-10-09 10:53:00
5:53 AM,39.9,32.0,73,30.05,10.0,Calm,Calm,-,N/A,,Clear,0,2012-10-09 12:53:00
6:53 AM,37.9,30.9,76,30.07,10.0,Calm,Calm,-,N/A,,Clear,0,2012-10-09 13:53:00
7:53 AM,41.0,34.0,76,30.09,9.0,Calm,Calm,-,N/A,,Clear,0,2012-10-09 14:53:00
8:53 AM,51.1,36.0,56,30.09,10.0,Calm,Calm,-,N/A,,Clear,0,2012-10-09 15:53:00
9:53 AM,55.9,39.0,53,30.09,10.0,Calm,Calm,-,N/A,,Clear,0,2012-10-09 16:53:00
10:53 AM,59.0,39.9,49,30.09,10.0,Variable,3.5,-,N/A,,Clear,0,2012-10-09 17:53:00
11:53 AM,66.0,41.0,40,30.07,8.0,SE,3.5,-,N/A,,Clear,130,2012-10-09 18:53:00
12:53 PM,72.0,37.0,28,30.05,10.0,SSE,3.5,-,N/A,,Clear,150,2012-10-09 19:53:00
1:53 PM,75.9,37.9,25,30.02,10.0,ESE,6.9,-,N/A,,Clear,110,2012-10-09 20:53:00
2:53 PM,77.0,36.0,23,30.00,10.0,East,4.6,-,N/A,,Clear,100,2012-10-09 21:53:00
3:53 PM,78.1,35.1,21,29.99,10.0,SSE,6.9,-,N/A,,Clear,160,2012-10-09 22:53:00
4:53 PM,77.0,36.0,23,29.98,10.0,ESE,4.6,-,N/A,,Clear,120,2012-10-09 23:53:00
5:53 PM,73.0,37.0,27,29.98,10.0,South,3.5,-,N/A,,Clear,170,2012-10-10 00:53:00
6:09 PM,69.8,35.6,28,29.98,2.0,SSE,3.5,-,N/A,,Haze,160,2012-10-10 01:09:00
6:18 PM,68.0,37.4,33,29.98,10.0,Calm,Calm,-,N/A,,Clear,0,2012-10-10 01:18:00
6:53 PM,59.0,37.9,46,30.00,10.0,ESE,3.5,-,N/A,,Clear,110,2012-10-10 01:53:00
7:53 PM,57.9,37.9,47,30.00,10.0,NE,9.2,-,N/A,,Clear,50,2012-10-10 02:53:00
8:53 PM,54.0,37.0,53,30.00,10.0,Calm,Calm,-,N/A,,Clear,0,2012-10-10 03:53:00
9:53 PM,53.1,35.1,50,29.99,10.0,NNW,3.5,-,N/A,,Clear,340,2012-10-10 04:53:00
10:53 PM,52.0,35.1,53,30.00,9.0,Calm,Calm,-,N/A,,Clear,0,2012-10-10 05:53:00
11:53 PM,48.9,34.0,56,29.99,8.0,SE,3.5,-,N/A,,Clear,140,2012-10-10 06:53:00